Home > Weather > Cumberland > Past weeks

Flag for U.S.A. Weather for the Past 2 Weeks in Cumberland, Maryland, U.S.A.

Now
21 °F

Clear.


Feels Like: 13 °F
Forecast: 7 / 23 °F
Wind: 6 mph from East

Location: Eastern West Virginia Regional Airport

Current Time: Feb 14, 2016 at 6:42:42 PM

Latest Report: Feb 14, 2016 at 5:53 PM


Visibility: 10 mi

Pressure: 30.48 "Hg

Humidity: 38%

Dew point: -1 °F

Location of CumberlandLocation

Historic Weather in Cumberland — Graph

°F

Cumberland Temperature Yesterday

Maximum temperature yesterday: 24 °F (at 12:53 AM)
Minimum temperature yesterday: 11 °F (at 11:53 PM)
Average temperature yesterday: 16 °F

High & Low Weather Summary for the Past Weeks

 TemperatureHumidityPressure
High58 °F (Jan 31, 1:53 PM)100% (Feb 2, 8:53 AM)30.56 "Hg (Feb 2, 8:53 AM)
Low9 °F (Feb 12, 4:53 AM)32% (Feb 11, 3:53 PM)29.55 "Hg (Feb 9, 4:53 AM)
Average32 °F63%30.05 "Hg
* Reported Jan 30 4:53 PM — Feb 14 4:53 PM, Cumberland, Weather by CustomWeather, © 2016

Note: Actual official high and low records may vary slightly from our data, if they occured in-between our weather recording intervals... More about our weather records

Advertising

Cumberland Weather History for the Previous 24 Hours

 ConditionsComfort  
Time TempWeatherWind HumidityBarometerVisibility
4:53 PM
Sun, Feb 14
21 °FSunny.6 mph38%30.46 "Hg10 mi
3:53 PM22 °FSunny.5 mph35%30.47 "Hg10 mi
2:53 PM23 °FSunny.No wind32%30.47 "Hg10 mi
1:53 PM22 °FSunny.No wind35%30.48 "Hg10 mi
12:53 PM20 °FSunny.5 mph36%30.53 "Hg10 mi
11:53 AM18 °FSunny.3 mph41%30.55 "Hg10 mi
10:53 AM17 °FPassing clouds.No wind41%30.56 "Hg10 mi
9:53 AM16 °FSunny.10 mph45%30.56 "Hg10 mi
8:53 AM13 °FSunny.6 mph49%30.56 "Hg10 mi
7:53 AM11 °FSunny.6 mph53%30.55 "Hg10 mi
6:53 AM10 °FClear.12 mph53%30.53 "Hg10 mi
5:53 AM9 °FClear.8 mph55%30.52 "Hg10 mi
4:53 AM10 °FClear.9 mph53%30.49 "Hg10 mi
3:53 AM10 °FClear.13 mph53%30.47 "Hg10 mi
2:53 AM10 °FClear.10 mph53%30.46 "Hg10 mi
1:53 AM10 °FClear.9 mph53%30.46 "Hg10 mi
12:53 AM11 °FPassing clouds.9 mph51%30.46 "Hg10 mi
11:53 PM
Sat, Feb 13
11 °FPassing clouds.9 mph51%30.45 "Hg10 mi
10:53 PM12 °FPassing clouds.8 mph46%30.45 "Hg10 mi
9:53 PM12 °FPassing clouds.13 mph44%30.46 "Hg10 mi
8:53 PM12 °FPassing clouds.14 mph44%30.45 "Hg10 mi
7:53 PM13 °FOvercast.13 mph38%30.44 "Hg10 mi
6:53 PM13 °FOvercast.10 mph40%30.42 "Hg10 mi
Weather by CustomWeather, © 2016

See weather overviewHow to use our weather pages